Weather History for Muscle Shoals, AL

Change the Weather History Date:

Saturday, February 16, 2013

  Actual Average Record
Temperature  
Mean Temperature 35 °F 45 °F  
Max Temperature 44 °F 56 °F 80 °F (1927)
Min Temperature 25 °F 35 °F 6 °F (1958)
Degree Days  
Heating Degree Days 30 20  
Month to date heating degree days 308 341  
Since 1 July heating degree days 1981 2321  
Cooling Degree Days 0 0  
Month to date cooling degree days 0 0  
Year to date cooling degree days 7 0  
Moisture  
Dew Point 16 °F    
Average Humidity 45    
Maximum Humidity 63    
Minimum Humidity 27    
Precipitation  
Precipitation 0.00 in 0.17 in 2.24 in (2001)
Month to date precipitation 1.29 2.63  
Year to date precipitation 10.03 7.24  
Snow  
Snow 0.00 in - - ()
Month to date snowfall T  
Since 1 July snowfall T  
Snow Depth 0.00 in    
Sea Level Pressure  
Sea Level Pressure 30.19 in    
Wind  
Wind Speed 8 mph (NNW)    
Max Wind Speed 22 mph    
Max Gust Speed 30 mph    
Visibility 10 miles    
Events      
T = Trace of Precipitation, MM = Missing Value Source: NWS Daily Summary

Daily Weather History Graph

Daily Weather History Graph

Search for Another Location

Airport:

Trip Planner

Search our weather history database for the weather conditions in past years. The results will help you decide how hot, cold, wet, or windy it might be!

Date:

Astronomy

Feb. 16, 2013 Rise Set
Actual Time 6:34 AM CST 5:34 PM CST
Civil Twilight 6:08 AM CST 6:00 PM CST
Nautical Twilight 5:39 AM CST 6:30 PM CST
Astronomical Twilight 5:10 AM CST 6:59 PM CST
Moon 10:05 AM CST (2/16) No Moon Set
Length of Visible Light 11h 51m
Length of Day
11h 00m
Waxing Crescent, 39% of the Moon is Illuminated
Feb 16
Waxing Crescent
Feb 17
First Quarter
Feb 25
Full
Mar 4
Last Quarter
Mar 11
New

Hourly Weather History & Observations

Time (CST) Temp. Windchill Dew Point Humidity Pressure Visibility Wind Dir Wind Speed Gust Speed Precip Events Conditions
12:53 AM 39.0 °F 33.4 °F 23.0 °F 53% 30.15 in 10.0 mi NNE 8.1 mph - N/A   Overcast
1:53 AM 37.0 °F 30.4 °F 21.0 °F 52% 30.15 in 10.0 mi North 9.2 mph - N/A   Partly Cloudy
2:53 AM 36.0 °F 30.3 °F 21.0 °F 55% 30.15 in 10.0 mi North 6.9 mph - N/A   Overcast
3:53 AM 34.0 °F 28.0 °F 19.9 °F 56% 30.16 in 10.0 mi North 6.9 mph - N/A   Partly Cloudy
4:53 AM 32.0 °F 26.4 °F 19.9 °F 61% 30.17 in 10.0 mi North 5.8 mph - N/A   Clear
5:53 AM 30.0 °F 25.2 °F 19.0 °F 64% 30.17 in 10.0 mi NNW 4.6 mph - N/A   Partly Cloudy
6:53 AM 30.0 °F 25.2 °F 19.9 °F 66% 30.18 in 10.0 mi NNW 4.6 mph - N/A   Clear
7:53 AM 33.1 °F 27.7 °F 19.0 °F 56% 30.19 in 10.0 mi North 5.8 mph - N/A   Scattered Clouds
8:53 AM 36.0 °F 30.3 °F 18.0 °F 48% 30.20 in 10.0 mi North 6.9 mph - N/A   Clear
9:53 AM 39.0 °F 32.3 °F 16.0 °F 39% 30.21 in 10.0 mi NW 10.4 mph - N/A   Partly Cloudy
10:53 AM 41.0 °F 35.2 °F 15.1 °F 35% 30.20 in 10.0 mi NNW 9.2 mph 16.1 mph N/A   Partly Cloudy
11:53 AM 41.0 °F 33.9 °F 12.9 °F 32% 30.18 in 10.0 mi WNW 12.7 mph 21.9 mph N/A   Partly Cloudy
12:53 PM 43.0 °F 38.8 °F 12.9 °F 30% 30.16 in 10.0 mi North 6.9 mph 20.7 mph N/A   Mostly Cloudy
1:53 PM 39.9 °F 33.4 °F 12.9 °F 33% 30.16 in 10.0 mi NW 10.4 mph 23.0 mph N/A   Overcast
2:53 PM 41.0 °F 33.1 °F 12.9 °F 32% 30.16 in 10.0 mi WNW 15.0 mph 26.5 mph N/A   Overcast
3:24 PM 39.2 °F 30.5 °F 12.2 °F 33% 30.15 in 10.0 mi NNW 16.1 mph 24.2 mph N/A   Overcast
3:53 PM 42.1 °F 33.9 °F 10.9 °F 28% 30.17 in 10.0 mi NW 17.3 mph 23.0 mph N/A   Mostly Cloudy
4:53 PM 39.0 °F 31.0 °F 12.9 °F 34% 30.18 in 10.0 mi WNW 13.8 mph 24.2 mph N/A   Scattered Clouds
5:53 PM 37.0 °F 29.8 °F 12.0 °F 36% 30.20 in 10.0 mi NW 10.4 mph - N/A   Partly Cloudy
6:53 PM 36.0 °F 31.1 °F 12.0 °F 37% 30.23 in 10.0 mi NNW 5.8 mph - N/A   Clear
7:53 PM 34.0 °F 28.0 °F 12.9 °F 42% 30.25 in 10.0 mi NW 6.9 mph - N/A   Clear
8:53 PM 30.9 °F 25.2 °F 14.0 °F 50% 30.26 in 10.0 mi WNW 5.8 mph - N/A   Clear
9:53 PM 30.9 °F 24.3 °F 14.0 °F 50% 30.27 in 10.0 mi NW 6.9 mph - N/A   Clear
10:53 PM 28.0 °F 21.7 °F 12.9 °F 53% 30.26 in 10.0 mi WNW 5.8 mph - N/A   Clear
11:53 PM 27.0 °F - 14.0 °F 58% 30.27 in 10.0 mi Calm Calm - N/A   Clear